Location: Brunembert
(50.7122°N, 1.8935°E)
Time: 10:39:47
(UTC+00:00)

Meteor 2-21 - Pass Details

Date: 22 April 2021
Orbit: 933 x 967 km, 82.5° (Epoch: 05 May)

Event Time Altitude Azimuth Distance (km) Brightness Sun altitude
Rises 20:18:58 0° 349° (NNW) 3,603 8.3 -11.8°
Reaches altitude 10° 20:21:27 10° 349° (NNW) 2,656 7.5 -12.1°
Maximum altitude 20:27:31 85° 262° (W) 948 4.5 -12.9°
Drops below altitude 10° 20:33:35 10° 174° (S) 2,653 6.4 -13.6°
Enters shadow 20:34:06 - 174° (S) 2,846 6.5 -13.7°
